Tracking 30009 objects as of 8-Dec-2024
HD Live streaming from Space Station
objects crossing your sky now

COSMOS 1275 DEB

Track COSMOS 1275 DEB now!
10-day predictions


NORAD ID: 42130
Int'l Code: 1981-053QS
Perigee: 826.1 km
Apogee: 855.2 km
Inclination: 82.9 °
Period: 101.6 minutes
Semi major axis: 7211 km
RCS: Unknown
Launch date: June 4, 1981
Source: Commonwealth of Independent States (former USSR) (CIS)
Launch site: PLESETSK MISSILE AND SPACE COMPLEX (PKMTR)

Note: This is SATELLITE DEBRIS
Your satellite tracking list
Your tracking list is empty




NASA's NSSDC Master Catalog

Two Line Element Set (TLE):
1 42130U 81053QS  24341.81863792  .00006130  00000-0  30035-2 0  9998
2 42130  82.8640 177.7305 0020159 162.7907 197.3961 14.17584809567460
Source of the keplerian elements: AFSPC